User: anonymous   Login
Location: Albany
(35.0000°S, 118.0000°E)
Time: 03:50:12
(UTC-04:00)
Language:

Atlas Centaur 2 - Orbit

View from above orbital plane
View from above orbital plane
View from above satellite
View from above satellite

Ground track
Ground track

The orbit data is extracted from the following two-line orbital elements,

1   694U 63047A   17143.52927989 +.00000653 +00000-0 +71342-4 0  9991
2   694 030.3581 300.5150 0587839 177.6085 182.7515 14.02076040679251
Epoch (UTC): 23 May 2017 12:42:09
Eccentricity: 0.0587839
inclination: 30.3581°
perigee height: 459 km
apogee height: 1313 km
right ascension of ascending node: 300.5150°
argument of perigee: 177.6085°
revolutions per day: 14.02076040
mean anomaly at epoch: 182.7515°
orbit number at epoch: 67925

The dashed part of the orbit path shows where the satellite is in the earth's shadow,  

DLR